Location: Dreilärchen
(47.9312°N, 8.6113°E)
Time: 02:40:32
(UTC+00:00)

IRS-1D - Pass Details

Date: 26 May 2022
Orbit: 740 x 816 km, 98.7° (Epoch: 26 June)

Event Time Altitude Azimuth Distance (km) Brightness Sun altitude
Rises 01:54:45 0° 17° (NNE) 3,355 8.3 -13.0°
Reaches altitude 10° 01:57:09 10° 21° (NNE) 2,416 7.4 -12.8°
Maximum altitude 02:02:27 60° 101° (ESE) 926 4.1 -12.2°
Drops below altitude 10° 02:07:38 10° 181° (S) 2,371 5.6 -11.7°
Enters shadow 02:07:54 - 182° (S) 2,471 5.7 -11.7°
